Cheektowaga, NY

4:22 AM EST on February 07, 2016 (GMT -0500)
Buffalo Niagara International

Weather History for KBUF - May, 2014

Change the Weather History Date:

Thursday, May 1, 2014

  Actual Average Record
Temperature  
Mean Temperature 49 °F 52 °F  
Max Temperature 53 °F 62 °F 87 °F (1970)
Min Temperature 44 °F 42 °F 28 °F (1943)
Degree Days  
Heating Degree Days 16 13  
Month to date heating degree days 16 13  
Since 1 July heating degree days 6871 6294  
Cooling Degree Days 0 0  
Month to date cooling degree days 0 0  
Year to date cooling degree days 0 3  
Moisture  
Dew Point 43 °F    
Average Humidity 75    
Maximum Humidity 96    
Minimum Humidity 54    
Precipitation  
Precipitation T in 0.10 in 0.77 in (1875)
Month to date precipitation T 0.10  
Year to date precipitation 14.41 11.65  
Snow  
Snow 0.00 in 0.00 in 0.10 in (1978)
Month to date snowfall 0.0 0.0  
Since 1 July snowfall 129.9 94.4  
Snow Depth 0.00 in    
Sea Level Pressure  
Sea Level Pressure 29.77 in    
Wind  
Wind Speed 15 mph (SW)    
Max Wind Speed 26 mph    
Max Gust Speed 33 mph    
Visibility 9 miles    
Events Rain    
T = Trace of Precipitation, MM = Missing Value Source: NWS Daily Summary

Daily Weather History Graph

Daily Weather History Graph

Search for Another Location

Airport or City:

Trip Planner

Search our weather history database for the weather conditions in past years. The results will help you decide how hot, cold, wet, or windy it might be!

Date:

Astronomy

May. 01, 2014 Rise Set
Actual Time 6:08 AM EDT 8:15 PM EDT
Civil Twilight 5:37 AM EDT 8:46 PM EDT
Nautical Twilight 4:59 AM EDT 9:25 PM EDT
Astronomical Twilight 4:18 AM EDT 10:07 PM EDT
Moon 7:53 AM EDT (5/1) 10:49 PM EDT (5/1)
Length of Visible Light 15h 08m
Length of Day
14h 06m
Waxing Crescent, 6% of the Moon is Illuminated
May 1
Waxing Crescent
May 6
First Quarter
May 14
Full
May 21
Last Quarter
May 28
New

Hourly Weather History & Observations

Time (EDT) Temp. Windchill Dew Point Humidity Pressure Visibility Wind Dir Wind Speed Gust Speed Precip Events Conditions
12:14 AM 52.0 °F - 50.0 °F 93% 29.76 in 10.0 mi West 9.2 mph - 0.01 in   Mostly Cloudy
12:54 AM 52.0 °F - 50.0 °F 93% 29.75 in 10.0 mi NW 5.8 mph - 0.01 in Rain Light Rain
1:54 AM 51.1 °F - 50.0 °F 96% 29.75 in 9.0 mi SW 6.9 mph - 0.00 in   Overcast
2:54 AM 50.0 °F - 48.9 °F 96% 29.73 in 9.0 mi SSW 5.8 mph - N/A   Overcast
3:23 AM 51.1 °F - 48.9 °F 92% 29.72 in 10.0 mi SW 5.8 mph - N/A   Overcast
3:54 AM 51.1 °F - 50.0 °F 96% 29.73 in 10.0 mi SW 5.8 mph - 0.00 in   Overcast
4:54 AM 52.0 °F - 50.0 °F 93% 29.73 in 10.0 mi SSW 10.4 mph - N/A   Overcast
5:34 AM 52.0 °F - 50.0 °F 93% 29.73 in 10.0 mi SW 10.4 mph - N/A   Overcast
5:41 AM 52.0 °F - 50.0 °F 93% 29.73 in 10.0 mi SW 10.4 mph - N/A   Overcast
5:54 AM 53.1 °F - 51.1 °F 93% 29.73 in 10.0 mi SW 15.0 mph - N/A   Overcast
6:02 AM 52.0 °F - 50.0 °F 93% 29.73 in 9.0 mi SW 18.4 mph - N/A   Overcast
6:54 AM 46.9 °F - 45.0 °F 93% 29.76 in 3.0 mi SW 21.9 mph 27.6 mph 0.00 in Rain Light Rain
7:27 AM 45.0 °F 36.9 °F 43.0 °F 93% 29.76 in 5.0 mi SW 20.7 mph 28.8 mph 0.00 in   Overcast
7:54 AM 44.1 °F 35.2 °F 42.1 °F 93% 29.78 in 6.0 mi SW 23.0 mph 28.8 mph 0.00 in   Overcast
8:54 AM 45.0 °F 38.2 °F 42.1 °F 90% 29.79 in 7.0 mi SW 15.0 mph 25.3 mph N/A   Overcast
9:48 AM 48.2 °F - 41.0 °F 76% 29.78 in 10.0 mi WSW 23.0 mph 31.1 mph N/A   Mostly Cloudy
9:54 AM 48.0 °F - 41.0 °F 77% 29.79 in 10.0 mi SW 19.6 mph 31.1 mph N/A   Mostly Cloudy
10:54 AM 48.9 °F - 41.0 °F 74% 29.80 in 10.0 mi SW 20.7 mph 29.9 mph N/A   Scattered Clouds
11:54 AM 45.0 °F 36.6 °F 37.0 °F 74% 29.81 in 10.0 mi SW 21.9 mph - N/A   Mostly Cloudy
12:06 PM 45.0 °F 36.6 °F 37.9 °F 76% 29.79 in 10.0 mi SW 21.9 mph 27.6 mph N/A   Mostly Cloudy
12:54 PM 48.9 °F - 39.9 °F 71% 29.80 in 10.0 mi SW 23.0 mph 32.2 mph N/A   Partly Cloudy
1:54 PM 51.1 °F - 41.0 °F 68% 29.79 in 10.0 mi SW 19.6 mph - N/A   Scattered Clouds
2:54 PM 51.1 °F - 37.9 °F 61% 29.80 in 10.0 mi SW 24.2 mph 28.8 mph N/A   Mostly Cloudy
3:54 PM 51.1 °F - 37.0 °F 59% 29.79 in 10.0 mi WSW 19.6 mph - N/A   Mostly Cloudy
4:54 PM 52.0 °F - 36.0 °F 54% 29.78 in 10.0 mi SW 13.8 mph - N/A   Mostly Cloudy
5:54 PM 50.0 °F - 37.0 °F 61% 29.79 in 10.0 mi SW 11.5 mph - N/A   Mostly Cloudy
6:54 PM 48.0 °F - 36.0 °F 63% 29.80 in 10.0 mi SW 11.5 mph - N/A   Mostly Cloudy
7:54 PM 46.9 °F - 36.0 °F 66% 29.80 in 10.0 mi WSW 6.9 mph - N/A   Overcast
8:54 PM 48.9 °F - 37.0 °F 64% 29.80 in 10.0 mi SW 10.4 mph - N/A   Overcast
9:54 PM 48.9 °F - 37.0 °F 64% 29.79 in 10.0 mi SW 12.7 mph - N/A   Overcast
10:54 PM 48.0 °F - 37.0 °F 66% 29.78 in 10.0 mi SW 12.7 mph 23.0 mph N/A   Overcast
11:54 PM 48.0 °F - 37.0 °F 66% 29.77 in 10.0 mi SW 17.3 mph 21.9 mph N/A   Mostly Cloudy